HIMAWARI-8

Last updated on Nov. 20, 2019, 4:19 a.m. UTC

1 40267U 14060A   19322.89090032 -.00000273  00000-0  00000-0 0  9991
2 40267   0.0338 191.8160 0001188  61.4161 265.8230  1.00270437 18670
UTC
Height (km)
Latitude
Longitude
Inclination
Orbital Period
UTC large
Height (km)
Speed (km/s)
/
Latitude / Longitude
Inclination (degrees)
Orbital Period (minutes)
Azimuth
Elevation
Range (km)
Doppler Factor
iOS Compass Heading
iOS Angle

Next 30 passes for location: Hong Kong

Rise time Rise Azimuth (degrees) Set time Set Azimuth (degrees) Duration Max altitude (degrees)

No matching passes for this satellites